ACA007 KFLL-CYVR

Flight info

Callsign ACA007
Flight time 1h 47m
Altitude 34000
Route HROCK2 SMELZ Q116 VLKNN DCT VISQA DCT FAM DCT HLV DCT LMN DCT GLENE DCT HARDS/N0486F360 DCT VIVID DCT KP90Y DCT MLS DCT KU12S DCT KU18M DCT METOW GRIZZ9
Aircraft A35K/H-SDE2E3GHIJ3J4J5LM1ORWXY/LB1D1

Departure

Time 2026-05-04 00:51
Airport Fort Lauderdale Hollywood International Airport (KFLL)

Arrival

Time 2026-05-04 02:39
Airport Vancouver International Airport (CYVR)
Time Latitude Longitude Altitude Speed Heading
2026-05-04 00:22 26.07394 -80.14698 29 ft 0 kts 189°
2026-05-04 00:44 26.07409 -80.14695 28 ft 4 kts 189°
2026-05-04 00:44 26.07436 -80.14690 27 ft 4 kts 189°
2026-05-04 00:44 26.07458 -80.14685 29 ft 4 kts 198°
2026-05-04 00:45 26.07479 -80.14671 30 ft 4 kts 239°
2026-05-04 00:45 26.07488 -80.14643 30 ft 4 kts 265°
2026-05-04 00:45 26.07488 -80.14619 31 ft 0 kts 270°
2026-05-04 00:48 26.07488 -80.14639 30 ft 9 kts 270°
2026-05-04 00:48 26.07489 -80.14728 29 ft 14 kts 270°
2026-05-04 00:48 26.07488 -80.14859 27 ft 19 kts 270°
2026-05-04 00:48 26.07489 -80.15021 26 ft 22 kts 270°
2026-05-04 00:49 26.07490 -80.15206 24 ft 26 kts 270°
2026-05-04 00:49 26.07491 -80.15412 22 ft 27 kts 270°
2026-05-04 00:49 26.07493 -80.15621 25 ft 28 kts 271°
2026-05-04 00:49 26.07494 -80.15846 26 ft 29 kts 270°
2026-05-04 00:50 26.07494 -80.16069 31 ft 29 kts 270°
2026-05-04 00:50 26.07496 -80.16304 30 ft 32 kts 270°
2026-05-04 00:50 26.07498 -80.16549 30 ft 31 kts 275°
2026-05-04 00:50 26.07635 -80.16638 28 ft 26 kts 11°
2026-05-04 00:51 26.07692 -80.16537 29 ft 19 kts 87°
2026-05-04 00:51 26.07692 -80.16107 30 ft 96 kts 90°
2026-05-04 00:51 26.07692 -80.15089 28 ft 164 kts 87°
2026-05-04 00:51 26.07732 -80.13809 754 ft 164 kts 85°
2026-05-04 00:52 26.07790 -80.12542 1639 ft 167 kts 85°
2026-05-04 00:52 26.07846 -80.11142 2106 ft 197 kts 87°
2026-05-04 00:52 26.08044 -80.09501 2466 ft 232 kts 75°
2026-05-04 00:52 26.08746 -80.07771 2922 ft 257 kts 51°
2026-05-04 00:53 26.10192 -80.06593 3645 ft 263 kts 21°
2026-05-04 00:53 26.11931 -80.05866 4462 ft 270 kts 17°
2026-05-04 00:53 26.13737 -80.05190 5254 ft 277 kts 15°
2026-05-04 00:53 26.15636 -80.04802 6100 ft 279 kts 358°
2026-05-04 00:54 26.17529 -80.05133 6949 ft 275 kts 335°
2026-05-04 00:54 26.19119 -80.06267 7905 ft 271 kts 316°
2026-05-04 00:54 26.20520 -80.07680 8916 ft 273 kts 313°
2026-05-04 00:54 26.21906 -80.09142 9924 ft 276 kts 313°
2026-05-04 00:55 26.23299 -80.10618 10642 ft 289 kts 312°
2026-05-04 00:55 26.24807 -80.12227 11053 ft 311 kts 312°
2026-05-04 00:55 26.26428 -80.13950 11436 ft 333 kts 312°
2026-05-04 00:55 26.28157 -80.15783 11851 ft 350 kts 313°
2026-05-04 00:56 26.29949 -80.17670 12473 ft 359 kts 313°
2026-05-04 00:56 26.35709 -80.23766 14708 ft 372 kts 312°
2026-05-04 00:56 26.43367 -80.31894 17430 ft 386 kts 311°
2026-05-04 00:56 26.51289 -80.40319 19912 ft 400 kts 310°
2026-05-04 00:57 26.59433 -80.48996 22506 ft 410 kts 309°
2026-05-04 00:57 26.67813 -80.57947 24762 ft 422 kts 308°
2026-05-04 00:57 26.76422 -80.67162 27039 ft 434 kts 308°
2026-05-04 00:57 26.85290 -80.76674 29275 ft 448 kts 308°
2026-05-04 00:58 26.94385 -80.86453 31117 ft 460 kts 307°
2026-05-04 00:58 27.03726 -80.96516 32743 ft 466 kts 306°
2026-05-04 00:58 27.12942 -81.06468 34044 ft 466 kts 306°
2026-05-04 00:59 27.31597 -81.26693 34032 ft 465 kts 305°
2026-05-04 00:59 27.50071 -81.46822 34079 ft 461 kts 305°
2026-05-04 01:00 27.68457 -81.66955 34085 ft 460 kts 305°
2026-05-04 01:00 27.86995 -81.87357 34091 ft 472 kts 305°
2026-05-04 01:01 28.05761 -82.08111 34091 ft 472 kts 305°
2026-05-04 01:01 28.16321 -82.17434 34120 ft 487 kts 314°
2026-05-04 01:01 28.27436 -82.26206 34095 ft 487 kts 313°
2026-05-04 01:02 28.49585 -82.43960 34083 ft 486 kts 313°
2026-05-04 01:02 28.71685 -82.61773 34064 ft 486 kts 313°
2026-05-04 01:03 28.93733 -82.79639 34107 ft 484 kts 314°
2026-05-04 01:03 29.15500 -82.97374 34075 ft 478 kts 314°
2026-05-04 01:04 29.37141 -83.15101 34117 ft 478 kts 315°
2026-05-04 01:04 29.58649 -83.32804 34090 ft 475 kts 315°
2026-05-04 01:05 29.80153 -83.50608 34113 ft 478 kts 315°
2026-05-04 01:05 30.01581 -83.68431 34118 ft 479 kts 315°
2026-05-04 01:06 30.23195 -83.86517 34111 ft 479 kts 315°
2026-05-04 01:06 30.44850 -84.04736 34110 ft 481 kts 315°
2026-05-04 01:07 30.66480 -84.23045 34110 ft 481 kts 315°
2026-05-04 01:07 30.88083 -84.41437 34104 ft 482 kts 316°
2026-05-04 01:08 31.09719 -84.59959 34123 ft 483 kts 316°
2026-05-04 01:08 31.31393 -84.78622 34124 ft 484 kts 317°
2026-05-04 01:09 31.53055 -84.97388 34132 ft 485 kts 318°
2026-05-04 01:09 31.74665 -85.16295 34129 ft 484 kts 319°
2026-05-04 01:10 31.96088 -85.35168 34118 ft 484 kts 319°
2026-05-04 01:10 32.17447 -85.54096 34116 ft 477 kts 321°
2026-05-04 01:11 32.38599 -85.72959 34111 ft 476 kts 322°
2026-05-04 01:11 32.59686 -85.91871 34106 ft 475 kts 322°
2026-05-04 01:12 32.67114 -85.98560 34114 ft 474 kts 322°
2026-05-04 01:12 32.72365 -86.03298 34119 ft 474 kts 322°
2026-05-04 01:13 32.77611 -86.08038 34123 ft 474 kts 322°
2026-05-04 01:13 32.82854 -86.12783 34123 ft 474 kts 322°
2026-05-04 01:14 32.88078 -86.17518 34122 ft 471 kts 322°
2026-05-04 01:14 32.93256 -86.22218 34123 ft 466 kts 322°
2026-05-04 01:15 32.98404 -86.26898 34110 ft 465 kts 322°
2026-05-04 01:15 33.03536 -86.31571 34115 ft 464 kts 322°
2026-05-04 01:16 33.08663 -86.36246 34146 ft 464 kts 322°
2026-05-04 01:16 33.13789 -86.40926 34146 ft 463 kts 321°
2026-05-04 01:17 33.18900 -86.45601 34144 ft 463 kts 321°
2026-05-04 01:17 33.23973 -86.50248 34137 ft 462 kts 321°
2026-05-04 01:18 33.29076 -86.54930 34126 ft 463 kts 321°
2026-05-04 01:18 33.34179 -86.59620 34129 ft 461 kts 321°
2026-05-04 01:19 33.39246 -86.64282 34140 ft 459 kts 321°
2026-05-04 01:19 33.44309 -86.68946 34144 ft 459 kts 321°
2026-05-04 01:20 33.49366 -86.73614 34147 ft 459 kts 321°
2026-05-04 01:20 33.54418 -86.78282 34146 ft 459 kts 321°
2026-05-04 01:21 33.59471 -86.82960 34147 ft 459 kts 321°
2026-05-04 01:21 33.64521 -86.87643 34149 ft 459 kts 321°
2026-05-04 01:22 33.69573 -86.92235 34135 ft 460 kts 323°
2026-05-04 01:22 33.74944 -86.96425 34118 ft 460 kts 326°
2026-05-04 01:23 33.80351 -87.00508 34111 ft 458 kts 326°
2026-05-04 01:23 33.90121 -87.08122 34122 ft 458 kts 325°
2026-05-04 01:24 34.00772 -87.16552 34105 ft 458 kts 325°
2026-05-04 01:24 34.09697 -87.23628 34127 ft 458 kts 325°
2026-05-04 01:25 34.20306 -87.32058 34113 ft 458 kts 324°
2026-05-04 01:25 34.30944 -87.40541 34095 ft 457 kts 324°
2026-05-04 01:26 34.41487 -87.48973 34099 ft 457 kts 324°
2026-05-04 01:26 34.52066 -87.57459 34093 ft 456 kts 324°
2026-05-04 01:27 34.62638 -87.65967 34092 ft 456 kts 324°
2026-05-04 01:27 34.73198 -87.74491 34097 ft 454 kts 324°
2026-05-04 01:28 34.83702 -87.82996 34091 ft 452 kts 324°
2026-05-04 01:28 34.94172 -87.91501 34085 ft 452 kts 324°
2026-05-04 01:29 35.04615 -88.00007 34084 ft 450 kts 324°
2026-05-04 01:29 35.15009 -88.08504 34080 ft 449 kts 324°
2026-05-04 01:30 35.25319 -88.16957 34069 ft 447 kts 324°
2026-05-04 01:30 35.35616 -88.25424 34068 ft 445 kts 324°
2026-05-04 01:31 35.45907 -88.33915 34077 ft 445 kts 324°
2026-05-04 01:31 35.56164 -88.42404 34078 ft 444 kts 323°
2026-05-04 01:32 35.66393 -88.50896 34073 ft 444 kts 323°
2026-05-04 01:32 35.76620 -88.59412 34061 ft 442 kts 323°
2026-05-04 01:33 35.86790 -88.67909 34041 ft 441 kts 323°
2026-05-04 01:33 35.96954 -88.76429 34042 ft 441 kts 323°
2026-05-04 01:34 36.07106 -88.84963 34045 ft 442 kts 323°
2026-05-04 01:34 36.17270 -88.93536 34021 ft 442 kts 323°
2026-05-04 01:35 36.27427 -89.02129 34009 ft 441 kts 323°
2026-05-04 01:35 36.40126 -89.12911 34017 ft 440 kts 323°
2026-05-04 01:36 36.60311 -89.30136 34008 ft 440 kts 322°
2026-05-04 01:36 36.80464 -89.47446 33982 ft 438 kts 322°
2026-05-04 01:37 37.00375 -89.64661 33997 ft 437 kts 322°
2026-05-04 01:37 37.20464 -89.82142 33975 ft 436 kts 322°
2026-05-04 01:38 37.40159 -89.99391 33960 ft 434 kts 321°
2026-05-04 01:38 37.60018 -90.16902 33959 ft 434 kts 321°
2026-05-04 01:39 37.77944 -90.36908 33953 ft 428 kts 312°
2026-05-04 01:39 37.94732 -90.58536 33941 ft 431 kts 312°
2026-05-04 01:40 38.11438 -90.80170 33903 ft 428 kts 312°
2026-05-04 01:40 38.27985 -91.01747 33919 ft 423 kts 312°
2026-05-04 01:41 38.44416 -91.23323 33898 ft 426 kts 311°
2026-05-04 01:41 38.60880 -91.45095 33858 ft 426 kts 311°
2026-05-04 01:42 38.77324 -91.66987 33863 ft 427 kts 311°
2026-05-04 01:42 38.93711 -91.88967 33866 ft 423 kts 311°
2026-05-04 01:43 39.10041 -92.11028 33870 ft 426 kts 311°
2026-05-04 01:43 39.27304 -92.32039 33868 ft 429 kts 313°
2026-05-04 01:44 39.44661 -92.53120 33878 ft 426 kts 313°
2026-05-04 01:44 39.61765 -92.74036 33877 ft 424 kts 313°
2026-05-04 01:45 39.78887 -92.95126 33871 ft 422 kts 313°
2026-05-04 01:45 40.04344 -93.26765 33863 ft 421 kts 313°
2026-05-04 01:46 40.21257 -93.47976 33880 ft 421 kts 312°
2026-05-04 01:46 40.38075 -93.69224 33869 ft 420 kts 312°
2026-05-04 01:47 40.54877 -93.90606 33868 ft 421 kts 311°
2026-05-04 01:47 40.69633 -94.14240 33866 ft 417 kts 304°
2026-05-04 01:48 40.83510 -94.38850 33882 ft 419 kts 303°
2026-05-04 01:48 40.97379 -94.63624 33863 ft 420 kts 303°
2026-05-04 01:49 41.11246 -94.88591 33855 ft 421 kts 303°
2026-05-04 01:49 41.25098 -95.13739 33851 ft 423 kts 303°
2026-05-04 01:50 41.38975 -95.39134 33842 ft 425 kts 302°
2026-05-04 01:50 41.53394 -95.64222 33846 ft 433 kts 306°
2026-05-04 01:51 41.68569 -95.89329 33843 ft 438 kts 306°
2026-05-04 01:51 41.83834 -96.14905 33860 ft 442 kts 307°
2026-05-04 01:52 41.99362 -96.41148 33836 ft 450 kts 306°
2026-05-04 01:52 42.15108 -96.67992 33842 ft 460 kts 307°
2026-05-04 01:53 42.31006 -96.95345 33851 ft 467 kts 308°
2026-05-04 01:53 42.47015 -97.23142 33858 ft 470 kts 308°
2026-05-04 01:54 42.62783 -97.51530 33866 ft 471 kts 305°
2026-05-04 01:54 42.77330 -97.79841 33860 ft 472 kts 306°
2026-05-04 01:55 42.92389 -98.09208 33829 ft 473 kts 306°
2026-05-04 01:55 43.07407 -98.38793 33813 ft 474 kts 306°
2026-05-04 01:56 43.22330 -98.68484 33834 ft 472 kts 306°
2026-05-04 01:56 43.37178 -98.98326 33831 ft 472 kts 305°
2026-05-04 01:57 43.51929 -99.28276 33825 ft 472 kts 305°
2026-05-04 01:57 43.66481 -99.58126 33822 ft 472 kts 305°
2026-05-04 01:58 43.81023 -99.88259 33802 ft 471 kts 305°
2026-05-04 01:58 43.96790 -100.17152 33811 ft 470 kts 310°
2026-05-04 01:59 44.13234 -100.45494 33799 ft 471 kts 310°
2026-05-04 01:59 44.29137 -100.73194 33778 ft 473 kts 310°
2026-05-04 02:00 44.45498 -101.01973 33779 ft 472 kts 310°
2026-05-04 02:00 44.61849 -101.31024 33765 ft 476 kts 310°
2026-05-04 02:01 44.78162 -101.60304 33780 ft 476 kts 309°
2026-05-04 02:01 44.93838 -101.88729 33792 ft 473 kts 310°
2026-05-04 02:02 45.07650 -102.20331 33788 ft 474 kts 300°
2026-05-04 02:02 45.19856 -102.53314 33782 ft 472 kts 300°
2026-05-04 02:03 45.31956 -102.86333 33754 ft 471 kts 300°
2026-05-04 02:03 45.44001 -103.19610 33768 ft 472 kts 299°
2026-05-04 02:04 45.55944 -103.53016 33768 ft 474 kts 299°
2026-05-04 02:04 45.67736 -103.86409 33773 ft 472 kts 299°
2026-05-04 02:05 45.79417 -104.19912 33786 ft 468 kts 299°
2026-05-04 02:05 45.90926 -104.53330 33791 ft 472 kts 298°
2026-05-04 02:06 46.02453 -104.87232 33785 ft 471 kts 298°
2026-05-04 02:06 46.08171 -105.04190 33995 ft 472 kts 296°
2026-05-04 02:06 46.13875 -105.21258 33771 ft 471 kts 298°
2026-05-04 02:07 46.25053 -105.55001 33763 ft 470 kts 298°
2026-05-04 02:07 46.36230 -105.89180 33756 ft 468 kts 297°
2026-05-04 02:08 46.47040 -106.23524 33757 ft 467 kts 296°
2026-05-04 02:08 46.57742 -106.58190 33757 ft 471 kts 296°
2026-05-04 02:09 46.67552 -106.90385 33765 ft 471 kts 296°
2026-05-04 02:09 46.78069 -107.25377 33789 ft 469 kts 296°
2026-05-04 02:10 46.88484 -107.60519 33782 ft 472 kts 296°
2026-05-04 02:10 46.98730 -107.95581 33768 ft 473 kts 295°
2026-05-04 02:11 47.06329 -108.32453 33766 ft 472 kts 289°
2026-05-04 02:11 47.13434 -108.69647 33772 ft 473 kts 289°
2026-05-04 02:12 47.19302 -109.00896 33793 ft 475 kts 288°
2026-05-04 02:12 47.26221 -109.38451 33799 ft 476 kts 288°
2026-05-04 02:13 47.33030 -109.76165 33831 ft 480 kts 288°
2026-05-04 02:13 47.39762 -110.14244 33815 ft 480 kts 288°
2026-05-04 02:14 47.46391 -110.52555 33828 ft 482 kts 288°
2026-05-04 02:14 47.52901 -110.91030 33831 ft 482 kts 287°
2026-05-04 02:15 47.59268 -111.29509 33856 ft 480 kts 287°
2026-05-04 02:15 47.65520 -111.68165 33817 ft 484 kts 287°
2026-05-04 02:16 47.71664 -112.07045 33828 ft 486 kts 286°
2026-05-04 02:16 47.77708 -112.46241 33838 ft 485 kts 286°
2026-05-04 02:17 47.83631 -112.85585 33886 ft 488 kts 285°
2026-05-04 02:17 47.89441 -113.25185 33914 ft 491 kts 285°
2026-05-04 02:18 47.95096 -113.64760 33902 ft 493 kts 285°
2026-05-04 02:18 48.00202 -114.04872 33864 ft 496 kts 278°
2026-05-04 02:19 48.02145 -114.46140 33867 ft 498 kts 277°
2026-05-04 02:19 48.03916 -114.87594 33863 ft 500 kts 277°
2026-05-04 02:20 48.05537 -115.29170 33850 ft 501 kts 276°
2026-05-04 02:20 48.07015 -115.70922 33845 ft 503 kts 276°
2026-05-04 02:21 48.08342 -116.12783 33870 ft 503 kts 276°
2026-05-04 02:21 48.09519 -116.54627 33879 ft 505 kts 275°
2026-05-04 02:22 48.11517 -117.43716 33875 ft 507 kts 275°
2026-05-04 02:22 48.12972 -118.47661 33854 ft 511 kts 274°
2026-05-04 02:23 48.13462 -119.75623 33836 ft 517 kts 274°
2026-05-04 02:23 48.13885 -120.17987 33846 ft 491 kts 287°
2026-05-04 02:24 48.20815 -120.57471 33893 ft 492 kts 290°
2026-05-04 02:24 48.24279 -120.77491 32976 ft 499 kts 289°
2026-05-04 02:24 48.27724 -120.97638 31954 ft 499 kts 289°
2026-05-04 02:25 48.31136 -121.17835 30937 ft 499 kts 288°
2026-05-04 02:25 48.34506 -121.38016 29186 ft 492 kts 287°
2026-05-04 02:25 48.37694 -121.57364 26365 ft 463 kts 287°
2026-05-04 02:25 48.41730 -121.75089 23746 ft 436 kts 307°
2026-05-04 02:26 48.49005 -121.89051 20711 ft 416 kts 317°
2026-05-04 02:26 48.57603 -122.00710 17429 ft 404 kts 319°
2026-05-04 02:26 48.65766 -122.11676 14530 ft 383 kts 319°
2026-05-04 02:26 48.73821 -122.22534 11320 ft 383 kts 319°
2026-05-04 02:27 48.79323 -122.29982 10018 ft 350 kts 318°
2026-05-04 02:27 48.81111 -122.32409 9325 ft 340 kts 319°
2026-05-04 02:27 48.82853 -122.34776 8791 ft 327 kts 319°
2026-05-04 02:27 48.84454 -122.36954 8341 ft 300 kts 319°
2026-05-04 02:28 48.85970 -122.39016 8008 ft 290 kts 319°
2026-05-04 02:28 48.87478 -122.41066 7694 ft 285 kts 319°
2026-05-04 02:28 48.88928 -122.43040 7380 ft 282 kts 319°
2026-05-04 02:28 48.90401 -122.45046 7086 ft 280 kts 320°
2026-05-04 02:29 48.91831 -122.46997 6831 ft 279 kts 319°
2026-05-04 02:29 48.93272 -122.48964 6593 ft 278 kts 319°
2026-05-04 02:29 48.94709 -122.50928 6346 ft 277 kts 319°
2026-05-04 02:29 48.96142 -122.52886 6123 ft 276 kts 319°
2026-05-04 02:30 48.97568 -122.54837 5873 ft 275 kts 319°
2026-05-04 02:30 48.98997 -122.56793 5614 ft 277 kts 319°
2026-05-04 02:30 49.00432 -122.58758 5380 ft 278 kts 319°
2026-05-04 02:30 49.01871 -122.60728 5132 ft 277 kts 319°
2026-05-04 02:31 49.03296 -122.62683 4894 ft 275 kts 318°
2026-05-04 02:31 49.04718 -122.64637 4652 ft 274 kts 318°
2026-05-04 02:31 49.06128 -122.66577 4403 ft 272 kts 318°
2026-05-04 02:31 49.07524 -122.68500 4156 ft 269 kts 317°
2026-05-04 02:32 49.08906 -122.70406 4012 ft 267 kts 317°
2026-05-04 02:32 49.10279 -122.72300 3995 ft 266 kts 317°
2026-05-04 02:32 49.11646 -122.74187 3995 ft 265 kts 317°
2026-05-04 02:32 49.13015 -122.76089 4004 ft 266 kts 316°
2026-05-04 02:33 49.14267 -122.78104 4001 ft 264 kts 309°
2026-05-04 02:33 49.15278 -122.80330 3992 ft 245 kts 300°
2026-05-04 02:33 49.16011 -122.82598 3984 ft 226 kts 290°
2026-05-04 02:33 49.16407 -122.84791 3982 ft 208 kts 282°
2026-05-04 02:34 49.16668 -122.86911 3793 ft 199 kts 281°
2026-05-04 02:34 49.16918 -122.88975 3501 ft 196 kts 281°
2026-05-04 02:34 49.17157 -122.91019 3215 ft 194 kts 280°
2026-05-04 02:34 49.17390 -122.93013 2953 ft 186 kts 280°
2026-05-04 02:35 49.17606 -122.94874 2696 ft 170 kts 281°
2026-05-04 02:35 49.17803 -122.96567 2472 ft 154 kts 281°
2026-05-04 02:35 49.17983 -122.98115 2301 ft 142 kts 281°
2026-05-04 02:35 49.18149 -122.99557 2111 ft 134 kts 281°
2026-05-04 02:36 49.18310 -123.00946 1951 ft 130 kts 281°
2026-05-04 02:36 49.18462 -123.02276 1781 ft 126 kts 281°
2026-05-04 02:36 49.18615 -123.03593 1621 ft 126 kts 281°
2026-05-04 02:36 49.18766 -123.04911 1446 ft 126 kts 281°
2026-05-04 02:37 49.18920 -123.06232 1291 ft 127 kts 281°
2026-05-04 02:37 49.19073 -123.07556 1126 ft 126 kts 279°
2026-05-04 02:37 49.19224 -123.08875 956 ft 127 kts 279°
2026-05-04 02:37 49.19377 -123.10198 794 ft 126 kts 280°
2026-05-04 02:38 49.19536 -123.11508 652 ft 125 kts 281°
2026-05-04 02:38 49.19687 -123.12817 462 ft 124 kts 281°
2026-05-04 02:38 49.19827 -123.14100 307 ft 121 kts 282°
2026-05-04 02:38 49.19974 -123.15360 145 ft 120 kts 282°
2026-05-04 02:39 49.20115 -123.16594 35 ft 118 kts 282°
2026-05-04 02:39 49.20246 -123.17699 31 ft 82 kts 280°
2026-05-04 02:39 49.20305 -123.18349 31 ft 49 kts 267°
2026-05-04 02:39 49.20248 -123.18699 31 ft 25 kts 251°
2026-05-04 02:40 49.20195 -123.18853 31 ft 8 kts 207°
2026-05-04 02:40 49.20160 -123.18800 31 ft 26 kts 112°
2026-05-04 02:40 49.20093 -123.18515 31 ft 11 kts 165°
2026-05-04 02:40 49.20016 -123.18522 31 ft 15 kts 189°
2026-05-04 02:41 49.19901 -123.18551 31 ft 20 kts 189°
2026-05-04 02:41 49.19780 -123.18494 31 ft 22 kts 118°
2026-05-04 02:41 49.19749 -123.18285 31 ft 12 kts 97°
2026-05-04 02:41 49.19778 -123.18211 31 ft 4 kts 44°
2026-05-04 02:42 49.19795 -123.18184 31 ft 3 kts 41°
2026-05-04 02:42 49.19798 -123.18181 31 ft 0 kts 41°
2026-05-04 02:42 49.19792 -123.18189 31 ft 2 kts 45°
2026-05-04 02:43 49.19776 -123.18212 31 ft 4 kts 42°
2026-05-04 02:43 49.19773 -123.18216 31 ft 4 kts 42°
2026-05-04 02:43 49.19792 -123.18190 31 ft 2 kts 43°
2026-05-04 02:43 49.19798 -123.18181 31 ft 0 kts 43°
2026-05-04 02:48 49.20152 -123.16915 32 ft 0 kts 282°
2026-05-04 02:48 48.81870 -122.33441 9094 ft 337 kts 319°
2026-05-04 02:49 49.19701 -123.12946 451 ft 124 kts 281°
2026-05-04 02:49 49.19833 -123.14158 303 ft 120 kts 281°
2026-05-04 02:49 49.19992 -123.15515 121 ft 120 kts 282°
2026-05-04 02:49 49.20153 -123.16928 34 ft 113 kts 282°
2026-05-04 02:50 49.20276 -123.17957 31 ft 66 kts 279°